User: anonymous   Login
Location: Muenchen
(48.1800°N, 11.5800°E)
Time: 01:53:07
(UTC+02:00)
Language:

Tiros 1 - Orbit

View from above orbital plane
View from above orbital plane
View from above satellite
View from above satellite

Ground track
Ground track

The orbit data is extracted from the following two-line orbital elements,

1    29U 60002B   16118.82747591 -.00000003 +00000-0 +30648-4 0  9998
2    29 048.3798 241.0258 0024732 246.9485 112.8819 14.74047113995500
Epoch (UTC): 27 April 2016 19:51:33
Eccentricity: 0.0024732
inclination: 48.3798°
perigee height: 631 km
apogee height: 665 km
right ascension of ascending node: 241.0258°
argument of perigee: 246.9485°
revolutions per day: 14.74047113
mean anomaly at epoch: 112.8819°
orbit number at epoch: 99550

The dashed part of the orbit path shows where the satellite is in the earth's shadow,  

DLR